,,,PA_Meas_PMT16A,,PR_Meas_QMR101_102,,RH_Meas_QMH101,,SR_Meas_QMS101,,TA_Meas_QMH101,,GenWind,,GenWind,
date,time,status,PA,status,PR,status,RH,status,SR,status,TA,status,DirAvg,status,SpdAvg,
2010-04-25, 00:00:04,VALID,1001.68,VALID,0,VALID,92.6541,VALID,0,VALID,24.8898,VALID,66,VALID,0,
2010-04-25, 00:01:04,VALID,1001.68,VALID,0,VALID,92.6541,VALID,0,VALID,24.8898,VALID,66,VALID,0,
2010-04-25, 00:02:04,VALID,1001.65,VALID,0,VALID,92.6694,VALID,0,VALID,24.9112,VALID,66,VALID,0,
2010-04-25, 00:03:04,VALID,1001.65,VALID,0,VALID,92.677,VALID,0,VALID,24.8917,VALID,66,VALID,0,
2010-04-25, 00:04:04,VALID,1001.65,VALID,0,VALID,92.6846,VALID,0,VALID,24.8722,VALID,66,VALID,0,
2010-04-25, 00:05:04,VALID,1001.62,VALID,0,VALID,92.677,VALID,0,VALID,24.8508,VALID,66,VALID,0,
2010-04-25, 00:06:04,VALID,1001.62,VALID,0,VALID,92.7075,VALID,0,VALID,24.8508,VALID,66,VALID,0,
2010-04-25, 00:07:04,VALID,1001.65,VALID,0,VALID,92.7457,VALID,0,VALID,24.8508,VALID,66,VALID,0,
2010-04-25, 00:08:04,VALID,1001.63,VALID,0,VALID,92.8143,VALID,0,VALID,24.8703,VALID,66,VALID,0,
2010-04-25, 00:09:04,VALID,1001.61,VALID,0,VALID,92.8296,VALID,0,VALID,24.8917,VALID,327,VALID,0,
2010-04-25, 00:10:04,VALID,1001.62,VALID,0,VALID,92.8372,VALID,0,VALID,24.8508,VALID,326,VALID,0,
2010-04-25, 00:11:04,VALID,1001.6,VALID,0,VALID,92.8601,VALID,0,VALID,24.8703,VALID,326,VALID,0,
2010-04-25, 00:12:04,VALID,1001.59,VALID,0,VALID,92.8525,VALID,0,VALID,24.8527,VALID,326,VALID,0,
2010-04-25, 00:13:04,VALID,1001.58,VALID,0,VALID,92.822,VALID,0,VALID,24.8527,VALID,326,VALID,0,
2010-04-25, 00:14:04,VALID,1001.54,VALID,0,VALID,92.7991,VALID,0,VALID,24.8136,VALID,326,VALID,0,
2010-04-25, 00:15:04,VALID,1001.52,VALID,0,VALID,92.8525,VALID,0,VALID,24.8136,VALID,326,VALID,0,
2010-04-25, 00:16:04,VALID,1001.5,VALID,0,VALID,92.8983,VALID,0,VALID,24.8136,VALID,326,VALID,0,
2010-04-25, 00:17:04,VALID,1001.48,VALID,0,VALID,92.9135,VALID,0,VALID,24.8136,VALID,326,VALID,0,
2010-04-25, 00:18:04,VALID,1001.45,VALID,0,VALID,92.8983,VALID,0,VALID,24.8136,VALID,326,VALID,0,
2010-04-25, 00:19:04,VALID,1001.45,VALID,0,VALID,92.8296,VALID,0,VALID,24.7532,VALID,326,VALID,0,
2010-04-25, 00:20:04,VALID,1001.43,VALID,0,VALID,92.822,VALID,0,VALID,24.7356,VALID,326,VALID,0,
2010-04-25, 00:21:04,VALID,1001.45,VALID,0,VALID,92.9135,VALID,0,VALID,24.7142,VALID,326,VALID,0,
2010-04-25, 00:22:04,VALID,1001.42,VALID,0,VALID,92.9211,VALID,0,VALID,24.7142,VALID,326,VALID,0,
2010-04-25, 00:23:04,VALID,1001.43,VALID,0,VALID,92.9517,VALID,0,VALID,24.716,VALID,326,VALID,0,
2010-04-25, 00:24:04,VALID,1001.43,VALID,0,VALID,92.9898,VALID,0,VALID,24.7142,VALID,326,VALID,0,
2010-04-25, 00:25:04,VALID,1001.42,VALID,0,VALID,92.9745,VALID,0,VALID,24.716,VALID,326,VALID,0,
2010-04-25, 00:26:04,VALID,1001.44,VALID,0,VALID,92.9974,VALID,0,VALID,24.716,VALID,326,VALID,0,
2010-04-25, 00:27:04,VALID,1001.42,VALID,0,VALID,92.9974,VALID,0,VALID,24.6965,VALID,326,VALID,0,
2010-04-25, 00:28:04,VALID,1001.38,VALID,0,VALID,93.028,VALID,0,VALID,24.716,VALID,326,VALID,0,
2010-04-25, 00:29:04,VALID,1001.38,VALID,0,VALID,93.0814,VALID,0,VALID,24.716,VALID,307,VALID,0,
2010-04-25, 00:30:04,VALID,1001.37,VALID,0,VALID,93.1043,VALID,0,VALID,24.716,VALID,282,VALID,0,
2010-04-25, 00:31:04,VALID,1001.36,VALID,0,VALID,93.1195,VALID,0,VALID,24.7356,VALID,282,VALID,0,
2010-04-25, 00:32:04,VALID,1001.32,VALID,0,VALID,93.1271,VALID,0,VALID,24.7356,VALID,280,VALID,0,
2010-04-25, 00:33:04,VALID,1001.31,VALID,0,VALID,93.1577,VALID,0,VALID,24.7356,VALID,271,VALID,0,
2010-04-25, 00:34:04,VALID,1001.3,VALID,0,VALID,93.1729,VALID,0,VALID,24.7356,VALID,271,VALID,0,
2010-04-25, 00:35:04,VALID,1001.28,VALID,0,VALID,93.1882,VALID,0,VALID,24.7337,VALID,271,VALID,0,
2010-04-25, 00:36:04,VALID,1001.28,VALID,0,VALID,93.1577,VALID,0,VALID,24.6946,VALID,271,VALID,0,
2010-04-25, 00:37:04,VALID,1001.27,VALID,0,VALID,93.15,VALID,0,VALID,24.6946,VALID,271,VALID,0,
2010-04-25, 00:38:04,VALID,1001.27,VALID,0,VALID,93.1653,VALID,0,VALID,24.6965,VALID,271,VALID,0,
2010-04-25, 00:39:04,VALID,1001.27,VALID,0,VALID,93.1729,VALID,0,VALID,24.6965,VALID,271,VALID,0,
2010-04-25, 00:40:04,VALID,1001.28,VALID,0,VALID,93.1577,VALID,0,VALID,24.677,VALID,271,VALID,0,
2010-04-25, 00:41:04,VALID,1001.31,VALID,0,VALID,93.1653,VALID,0,VALID,24.677,VALID,271,VALID,0,
2010-04-25, 00:42:04,VALID,1001.29,VALID,0,VALID,93.2111,VALID,0,VALID,24.6361,VALID,271,VALID,0,
2010-04-25, 00:43:04,VALID,1001.28,VALID,0,VALID,93.2034,VALID,0,VALID,24.677,VALID,271,VALID,0,
2010-04-25, 00:44:04,VALID,1001.3,VALID,0,VALID,93.1271,VALID,0,VALID,24.6166,VALID,271,VALID,0,
2010-04-25, 00:45:04,VALID,1001.31,VALID,0,VALID,93.0585,VALID,0,VALID,24.5775,VALID,271,VALID,0,
2010-04-25, 00:46:04,VALID,1001.27,VALID,0,VALID,93.0508,VALID,0,VALID,24.5013,VALID,271,VALID,0,
2010-04-25, 00:47:04,VALID,1001.26,VALID,0,VALID,92.9898,VALID,0,VALID,24.4409,VALID,271,VALID,0,
2010-04-25, 00:48:04,VALID,1001.22,VALID,0,VALID,93.0585,VALID,0,VALID,24.4037,VALID,271,VALID,0,
2010-04-25, 00:49:04,VALID,1001.19,VALID,0,VALID,93.1577,VALID,0,VALID,24.4214,VALID,324,VALID,0,
2010-04-25, 00:50:04,VALID,1001.21,VALID,0,VALID,93.15,VALID,0.112286,VALID,24.3824,VALID,329,VALID,0,
2010-04-25, 00:51:04,VALID,1001.21,VALID,0,VALID,93.1348,VALID,0,VALID,24.3842,VALID,329,VALID,0,
2010-04-25, 00:52:04,VALID,1001.21,VALID,0,VALID,93.15,VALID,0,VALID,24.3629,VALID,329,VALID,0,
2010-04-25, 00:53:04,VALID,1001.23,VALID,0,VALID,93.1577,VALID,0,VALID,24.3433,VALID,329,VALID,0,
2010-04-25, 00:54:04,VALID,1001.24,VALID,0,VALID,93.1195,VALID,0,VALID,24.3452,VALID,329,VALID,0,
2010-04-25, 00:55:04,VALID,1001.27,VALID,0,VALID,93.1271,VALID,0,VALID,24.3257,VALID,329,VALID,0,
2010-04-25, 00:56:04,VALID,1001.26,VALID,0,VALID,93.1424,VALID,0,VALID,24.2866,VALID,329,VALID,0,
2010-04-25, 00:57:04,VALID,1001.28,VALID,0,VALID,93.1729,VALID,0,VALID,24.2866,VALID,329,VALID,0,
2010-04-25, 00:58:04,VALID,1001.28,VALID,0,VALID,93.1882,VALID,0,VALID,24.2848,VALID,342,VALID,0,
2010-04-25, 00:59:04,VALID,1001.28,VALID,0,VALID,93.2034,VALID,0,VALID,24.2458,VALID,342,VALID,0,
2010-04-25, 01:00:04,VALID,1001.23,VALID,0,VALID,93.2568,VALID,0,VALID,24.2458,VALID,47,VALID,0,
2010-04-25, 01:01:04,VALID,1001.23,VALID,0,VALID,93.2492,VALID,0,VALID,24.2866,VALID,50,VALID,0,
2010-04-25, 01:02:04,VALID,1001.18,VALID,0,VALID,93.2416,VALID,0,VALID,24.2653,VALID,72,VALID,0,
2010-04-25, 01:03:04,VALID,1001.12,VALID,0,VALID,93.2568,VALID,0,VALID,24.2848,VALID,72,VALID,0,
2010-04-25, 01:04:04,VALID,1001.09,VALID,0,VALID,93.3103,VALID,0,VALID,24.3257,VALID,72,VALID,0,
2010-04-25, 01:05:04,VALID,1001.03,VALID,0,VALID,93.3789,VALID,0,VALID,24.3452,VALID,72,VALID,0,
2010-04-25, 01:06:04,VALID,1000.98,VALID,0,VALID,93.3408,VALID,0,VALID,24.3433,VALID,72,VALID,0,
2010-04-25, 01:07:04,VALID,1000.98,VALID,0,VALID,93.3255,VALID,0,VALID,24.3647,VALID,72,VALID,0,
2010-04-25, 01:08:04,VALID,1000.94,VALID,0,VALID,93.2874,VALID,0,VALID,24.3433,VALID,72,VALID,0,
2010-04-25, 01:09:04,VALID,1000.96,VALID,0,VALID,93.3103,VALID,0,VALID,24.3629,VALID,72,VALID,0,
2010-04-25, 01:10:04,VALID,1000.96,VALID,0,VALID,93.3408,VALID,0,VALID,24.3824,VALID,72,VALID,0,
2010-04-25, 01:11:04,VALID,1000.92,VALID,0,VALID,93.3255,VALID,0,VALID,24.4019,VALID,72,VALID,0,
2010-04-25, 01:12:04,VALID,1000.92,VALID,0,VALID,93.3255,VALID,0,VALID,24.4019,VALID,72,VALID,0,
2010-04-25, 01:13:04,VALID,1000.91,VALID,0,VALID,93.3408,VALID,0,VALID,24.4019,VALID,72,VALID,0,
2010-04-25, 01:14:04,VALID,1000.89,VALID,0,VALID,93.3484,VALID,0.112286,VALID,24.4233,VALID,72,VALID,0,
2010-04-25, 01:15:04,VALID,1000.89,VALID,0,VALID,93.3255,VALID,0,VALID,24.4019,VALID,72,VALID,0,
2010-04-25, 01:16:04,VALID,1000.86,VALID,0,VALID,93.3255,VALID,0,VALID,24.4019,VALID,72,VALID,0,
2010-04-25, 01:17:04,VALID,1000.85,VALID,0,VALID,93.295,VALID,0,VALID,24.3629,VALID,72,VALID,0,
2010-04-25, 01:18:04,VALID,1000.83,VALID,0,VALID,93.234,VALID,0,VALID,24.3647,VALID,72,VALID,0,
2010-04-25, 01:19:04,VALID,1000.79,VALID,0,VALID,93.234,VALID,0,VALID,24.3257,VALID,72,VALID,0,
2010-04-25, 01:20:04,VALID,1000.79,VALID,0,VALID,93.2263,VALID,0,VALID,24.2848,VALID,72,VALID,0,
2010-04-25, 01:21:04,VALID,1000.79,VALID,0,VALID,93.3103,VALID,0,VALID,24.2866,VALID,72,VALID,0,
2010-04-25, 01:22:04,VALID,1000.75,VALID,0,VALID,93.356,VALID,0,VALID,24.2848,VALID,72,VALID,0,
2010-04-25, 01:23:04,VALID,1000.72,VALID,0,VALID,93.3942,VALID,0,VALID,24.3043,VALID,72,VALID,0,
2010-04-25, 01:24:04,VALID,1000.7,VALID,0,VALID,93.3789,VALID,0,VALID,24.3043,VALID,48,VALID,0,
2010-04-25, 01:25:04,VALID,1000.68,VALID,0,VALID,93.4476,VALID,0,VALID,24.3238,VALID,48,VALID,0,
2010-04-25, 01:26:04,VALID,1000.66,VALID,0,VALID,93.4171,VALID,0,VALID,24.3452,VALID,48,VALID,0,
2010-04-25, 01:27:04,VALID,1000.65,VALID,0,VALID,93.3179,VALID,0,VALID,24.2848,VALID,48,VALID,0,
2010-04-25, 01:28:04,VALID,1000.65,VALID,0,VALID,93.2263,VALID,0,VALID,24.2067,VALID,46,VALID,0,
2010-04-25, 01:29:04,VALID,1000.68,VALID,0,VALID,93.2721,VALID,0,VALID,24.1677,VALID,29,VALID,0,
2010-04-25, 01:30:04,VALID,1000.68,VALID,0,VALID,93.3484,VALID,0,VALID,24.1696,VALID,23,VALID,1.19727,
2010-04-25, 01:31:04,VALID,1000.72,VALID,0,VALID,93.3866,VALID,0,VALID,24.1696,VALID,3,VALID,1.08047,
2010-04-25, 01:32:04,VALID,1000.72,VALID,0,VALID,93.4323,VALID,0,VALID,24.1872,VALID,3,VALID,1.02656,
2010-04-25, 01:33:04,VALID,1000.72,VALID,0,VALID,93.4476,VALID,0,VALID,24.2067,VALID,7,VALID,1.07187,
2010-04-25, 01:34:04,VALID,1000.74,VALID,0,VALID,93.4476,VALID,0,VALID,24.2476,VALID,8,VALID,0.81875,
2010-04-25, 01:35:04,VALID,1000.7,VALID,0,VALID,93.4781,VALID,0,VALID,24.2671,VALID,8,VALID,0.611328,
2010-04-25, 01:36:04,VALID,1000.75,VALID,0,VALID,93.4781,VALID,0,VALID,24.2458,VALID,8,VALID,0.380859,
2010-04-25, 01:37:04,VALID,1000.71,VALID,0,VALID,93.5163,VALID,0,VALID,24.2866,VALID,8,VALID,0.302344,
2010-04-25, 01:38:04,VALID,1000.73,VALID,0,VALID,93.4857,VALID,0,VALID,24.2848,VALID,8,VALID,0.255469,
2010-04-25, 01:39:04,VALID,1000.73,VALID,0,VALID,93.4857,VALID,0,VALID,24.2653,VALID,8,VALID,0.114063,
2010-04-25, 01:40:04,VALID,1000.75,VALID,0,VALID,93.4628,VALID,0,VALID,24.2653,VALID,8,VALID,0,
2010-04-25, 01:41:04,VALID,1000.76,VALID,0,VALID,93.4705,VALID,0,VALID,24.2671,VALID,8,VALID,0,
2010-04-25, 01:42:04,VALID,1000.76,VALID,0,VALID,93.4628,VALID,0,VALID,24.2458,VALID,8,VALID,0,
2010-04-25, 01:43:04,VALID,1000.77,VALID,0,VALID,93.4476,VALID,0,VALID,24.2263,VALID,8,VALID,0,
2010-04-25, 01:44:04,VALID,1000.77,VALID,0,VALID,93.4781,VALID,0,VALID,24.2458,VALID,8,VALID,0.476953,
2010-04-25, 01:45:04,VALID,1000.74,VALID,0,VALID,93.4781,VALID,0,VALID,24.2653,VALID,8,VALID,0.521484,
2010-04-25, 01:46:04,VALID,1000.75,VALID,0,VALID,93.5315,VALID,0,VALID,24.2848,VALID,8,VALID,0.473437,
2010-04-25, 01:47:04,VALID,1000.75,VALID,0,VALID,93.5239,VALID,0,VALID,24.2848,VALID,7,VALID,0.540625,
2010-04-25, 01:48:04,VALID,1000.77,VALID,0,VALID,93.5163,VALID,0,VALID,24.3238,VALID,353,VALID,0.540234,
2010-04-25, 01:49:04,VALID,1000.75,VALID,0,VALID,93.5239,VALID,0,VALID,24.3238,VALID,324,VALID,0.686328,
2010-04-25, 01:50:04,VALID,1000.74,VALID,0,VALID,93.5391,VALID,0,VALID,24.3452,VALID,318,VALID,0.664063,
2010-04-25, 01:51:04,VALID,1000.76,VALID,0,VALID,93.5086,VALID,0,VALID,24.3043,VALID,318,VALID,0.691797,
2010-04-25, 01:52:04,VALID,1000.73,VALID,0,VALID,93.5086,VALID,0,VALID,24.3238,VALID,313,VALID,0.702344,
2010-04-25, 01:53:04,VALID,1000.76,VALID,0,VALID,93.5315,VALID,0,VALID,24.3452,VALID,298,VALID,0.982422,
2010-04-25, 01:54:04,VALID,1000.73,VALID,0,VALID,93.5391,VALID,0,VALID,24.3433,VALID,284,VALID,1.12578,
2010-04-25, 01:55:04,VALID,1000.78,VALID,0,VALID,93.5163,VALID,0,VALID,24.3433,VALID,293,VALID,0.876953,
2010-04-25, 01:56:04,VALID,1000.78,VALID,0,VALID,93.5163,VALID,0,VALID,24.3238,VALID,293,VALID,0.776172,
2010-04-25, 01:57:04,VALID,1000.76,VALID,0,VALID,93.5163,VALID,0,VALID,24.3452,VALID,293,VALID,0.463281,
2010-04-25, 01:58:04,VALID,1000.75,VALID,0,VALID,93.5239,VALID,0,VALID,24.3238,VALID,293,VALID,0.304297,
2010-04-25, 01:59:04,VALID,1000.77,VALID,0,VALID,93.4857,VALID,0,VALID,24.3257,VALID,293,VALID,0,
2010-04-25, 02:00:04,VALID,1000.75,VALID,0,VALID,93.4705,VALID,0,VALID,24.3257,VALID,293,VALID,0,
2010-04-25, 02:01:04,VALID,1000.76,VALID,0,VALID,93.4857,VALID,0,VALID,24.3043,VALID,293,VALID,0,
2010-04-25, 02:02:04,VALID,1000.77,VALID,0,VALID,93.5086,VALID,0,VALID,24.3238,VALID,293,VALID,0,
2010-04-25, 02:03:04,VALID,1000.78,VALID,0,VALID,93.5086,VALID,0,VALID,24.3433,VALID,291,VALID,0,
2010-04-25, 02:04:04,VALID,1000.79,VALID,0,VALID,93.5086,VALID,0,VALID,24.3629,VALID,265,VALID,0,
2010-04-25, 02:05:04,VALID,1000.78,VALID,0,VALID,93.5163,VALID,0,VALID,24.3629,VALID,265,VALID,0,
2010-04-25, 02:06:04,VALID,1000.79,VALID,0,VALID,93.5086,VALID,0,VALID,24.3824,VALID,265,VALID,0,
2010-04-25, 02:07:04,VALID,1000.83,VALID,0,VALID,93.5163,VALID,0,VALID,24.3824,VALID,265,VALID,0,
2010-04-25, 02:08:04,VALID,1000.81,VALID,0,VALID,93.501,VALID,0,VALID,24.3824,VALID,265,VALID,0,
2010-04-25, 02:09:04,VALID,1000.81,VALID,0,VALID,93.4857,VALID,0,VALID,24.3824,VALID,265,VALID,0,
2010-04-25, 02:10:04,VALID,1000.83,VALID,0,VALID,93.4781,VALID,0,VALID,24.4037,VALID,265,VALID,0,
2010-04-25, 02:11:04,VALID,1000.78,VALID,0,VALID,93.4934,VALID,0,VALID,24.3824,VALID,265,VALID,0,
2010-04-25, 02:12:04,VALID,1000.78,VALID,0,VALID,93.4857,VALID,0,VALID,24.4019,VALID,265,VALID,0,
2010-04-25, 02:13:04,VALID,1000.75,VALID,0,VALID,93.4781,VALID,0,VALID,24.4019,VALID,177,VALID,0,
2010-04-25, 02:14:04,VALID,1000.72,VALID,0,VALID,93.4857,VALID,0,VALID,24.4214,VALID,156,VALID,0.494141,
2010-04-25, 02:15:04,VALID,1000.67,VALID,0,VALID,93.4857,VALID,0,VALID,24.4,VALID,151,VALID,0.905078,
2010-04-25, 02:16:04,VALID,1000.68,VALID,0,VALID,93.4476,VALID,0,VALID,24.4019,VALID,129,VALID,1.10234,
2010-04-25, 02:17:04,VALID,1000.62,VALID,0,VALID,93.4323,VALID,0,VALID,24.4214,VALID,125,VALID,0.950391,
2010-04-25, 02:18:04,VALID,1000.62,VALID,0,VALID,93.4247,VALID,0,VALID,24.4019,VALID,120,VALID,0.714844,
2010-04-25, 02:19:04,VALID,1000.57,VALID,0,VALID,93.4247,VALID,0,VALID,24.4214,VALID,120,VALID,0.407813,
2010-04-25, 02:20:04,VALID,1000.56,VALID,0,VALID,93.3637,VALID,0,VALID,24.4214,VALID,120,VALID,0.430469,
2010-04-25, 02:21:04,VALID,1000.52,VALID,0,VALID,93.3408,VALID,0,VALID,24.4019,VALID,120,VALID,0.486719,
2010-04-25, 02:22:04,VALID,1000.48,VALID,0,VALID,93.3408,VALID,0,VALID,24.4019,VALID,120,VALID,0.163672,
2010-04-25, 02:23:04,VALID,1000.46,VALID,0,VALID,93.3484,VALID,0,VALID,24.3824,VALID,120,VALID,0,
2010-04-25, 02:24:04,VALID,1000.4,VALID,0,VALID,93.3179,VALID,0,VALID,24.4019,VALID,120,VALID,0,
2010-04-25, 02:25:04,VALID,1000.42,VALID,0,VALID,93.3179,VALID,0,VALID,24.4019,VALID,120,VALID,0,
2010-04-25, 02:26:04,VALID,1000.39,VALID,0,VALID,93.3103,VALID,0,VALID,24.3824,VALID,120,VALID,0,
2010-04-25, 02:27:04,VALID,1000.39,VALID,0,VALID,93.295,VALID,0,VALID,24.3824,VALID,120,VALID,0,
2010-04-25, 02:28:04,VALID,1000.4,VALID,0,VALID,93.2263,VALID,0,VALID,24.3433,VALID,120,VALID,0,
2010-04-25, 02:29:04,VALID,1000.38,VALID,0,VALID,93.1958,VALID,0,VALID,24.3043,VALID,120,VALID,0,
2010-04-25, 02:30:04,VALID,1000.41,VALID,0,VALID,93.2263,VALID,0,VALID,24.3043,VALID,120,VALID,0,
2010-04-25, 02:31:04,VALID,1000.39,VALID,0,VALID,93.2721,VALID,0,VALID,24.3043,VALID,120,VALID,0,
2010-04-25, 02:32:04,VALID,1000.45,VALID,0,VALID,93.3026,VALID,0,VALID,24.3043,VALID,120,VALID,0,
2010-04-25, 02:33:04,VALID,1000.41,VALID,0,VALID,93.3331,VALID,0,VALID,24.3452,VALID,120,VALID,0,
2010-04-25, 02:34:04,VALID,1000.37,VALID,0,VALID,93.2034,VALID,0,VALID,24.3062,VALID,120,VALID,0,
2010-04-25, 02:35:04,VALID,1000.35,VALID,0,VALID,93.1882,VALID,0,VALID,24.2458,VALID,120,VALID,0,
2010-04-25, 02:36:04,VALID,1000.36,VALID,0,VALID,93.1882,VALID,0.112286,VALID,24.2067,VALID,120,VALID,0,
2010-04-25, 02:37:04,VALID,1000.3,VALID,0,VALID,93.2187,VALID,0,VALID,24.1872,VALID,120,VALID,0,
2010-04-25, 02:38:04,VALID,1000.27,VALID,0,VALID,93.2111,VALID,0,VALID,24.1677,VALID,120,VALID,0,
2010-04-25, 02:39:04,VALID,1000.26,VALID,0,VALID,93.2416,VALID,0,VALID,24.1482,VALID,120,VALID,0,
2010-04-25, 02:40:04,VALID,1000.23,VALID,0,VALID,93.2797,VALID,0,VALID,24.1482,VALID,120,VALID,0,
2010-04-25, 02:41:04,VALID,1000.24,VALID,0,VALID,93.1653,VALID,0.112286,VALID,24.1287,VALID,120,VALID,0,
2010-04-25, 02:42:04,VALID,1000.23,VALID,0,VALID,93.2263,VALID,0,VALID,24.0897,VALID,56,VALID,0.791016,
2010-04-25, 02:43:04,VALID,1000.22,VALID,0,VALID,93.1958,VALID,0,VALID,24.0701,VALID,56,VALID,0.723828,
2010-04-25, 02:44:04,VALID,1000.17,VALID,0,VALID,93.1882,VALID,0,VALID,24.0311,VALID,56,VALID,0.65625,
2010-04-25, 02:45:04,VALID,1000.15,VALID,0,VALID,93.234,VALID,0,VALID,24.0116,VALID,56,VALID,0.672266,
2010-04-25, 02:46:04,VALID,1000.13,VALID,0,VALID,93.3103,VALID,0,VALID,24.0116,VALID,56,VALID,0.641797,
2010-04-25, 02:47:04,VALID,1000.13,VALID,0,VALID,93.4094,VALID,0,VALID,24.0311,VALID,56,VALID,0.724609,
2010-04-25, 02:48:04,VALID,1000.11,VALID,0,VALID,93.4247,VALID,0.112286,VALID,24.0506,VALID,56,VALID,0.646094,
2010-04-25, 02:49:04,VALID,1000.1,VALID,0,VALID,93.5086,VALID,0,VALID,24.1305,VALID,56,VALID,0.663672,
2010-04-25, 02:50:04,VALID,1000.11,VALID,0,VALID,93.4323,VALID,0,VALID,24.1092,VALID,56,VALID,0.658594,
2010-04-25, 02:51:04,VALID,1000.08,VALID,0,VALID,93.4323,VALID,0,VALID,24.1092,VALID,56,VALID,0.747656,
2010-04-25, 02:52:04,VALID,1000.11,VALID,0,VALID,93.3713,VALID,0,VALID,24.0897,VALID,54,VALID,0.6,
2010-04-25, 02:53:04,VALID,1000.09,VALID,0,VALID,93.2721,VALID,0,VALID,24.0329,VALID,54,VALID,0.352344,
2010-04-25, 02:54:04,VALID,1000.07,VALID,0,VALID,93.2416,VALID,0.112286,VALID,23.9531,VALID,54,VALID,0,
2010-04-25, 02:55:04,VALID,1000.06,VALID,0,VALID,93.234,VALID,0,VALID,23.914,VALID,54,VALID,0,
2010-04-25, 02:56:04,VALID,1000.05,VALID,0,VALID,93.3255,VALID,0,VALID,23.914,VALID,54,VALID,0,
2010-04-25, 02:57:04,VALID,1000.07,VALID,0,VALID,93.3866,VALID,0,VALID,23.914,VALID,54,VALID,0,
2010-04-25, 02:58:04,VALID,1000.06,VALID,0,VALID,93.4934,VALID,0,VALID,23.9531,VALID,54,VALID,0,
2010-04-25, 02:59:04,VALID,1000.06,VALID,0,VALID,93.5239,VALID,0,VALID,24.0116,VALID,54,VALID,0,
2010-04-25, 03:00:04,VALID,1000.07,VALID,0,VALID,93.4628,VALID,0,VALID,24.0116,VALID,54,VALID,0,
2010-04-25, 03:01:04,VALID,1000.09,VALID,0,VALID,93.4323,VALID,0,VALID,23.9726,VALID,54,VALID,0,
2010-04-25, 03:02:04,VALID,1000.08,VALID,0,VALID,93.3942,VALID,0,VALID,23.9531,VALID,45,VALID,0,
2010-04-25, 03:03:04,VALID,1000.11,VALID,0,VALID,93.4247,VALID,0,VALID,23.914,VALID,35,VALID,0,
2010-04-25, 03:04:04,VALID,1000.11,VALID,0,VALID,93.4094,VALID,0,VALID,23.914,VALID,35,VALID,0,
2010-04-25, 03:05:04,VALID,1000.13,VALID,0,VALID,93.4628,VALID,0,VALID,23.9336,VALID,16,VALID,0,
2010-04-25, 03:06:04,VALID,1000.12,VALID,0,VALID,93.4857,VALID,0.112286,VALID,23.9336,VALID,16,VALID,0,
2010-04-25, 03:07:04,VALID,1000.11,VALID,0,VALID,93.501,VALID,0,VALID,23.9531,VALID,16,VALID,0,
2010-04-25, 03:08:04,VALID,1000.12,VALID,0,VALID,93.4781,VALID,0,VALID,23.9336,VALID,16,VALID,0,
2010-04-25, 03:09:04,VALID,1000.11,VALID,0,VALID,93.4094,VALID,0,VALID,23.875,VALID,16,VALID,0,
2010-04-25, 03:10:04,VALID,1000.13,VALID,0,VALID,93.4476,VALID,0,VALID,23.875,VALID,16,VALID,0,
2010-04-25, 03:11:04,VALID,1000.14,VALID,0,VALID,93.4323,VALID,0,VALID,23.8555,VALID,16,VALID,0,
2010-04-25, 03:12:04,VALID,1000.16,VALID,0,VALID,93.4781,VALID,0,VALID,23.8768,VALID,16,VALID,0,
2010-04-25, 03:13:04,VALID,1000.16,VALID,0,VALID,93.4476,VALID,0,VALID,23.836,VALID,16,VALID,0,
2010-04-25, 03:14:04,VALID,1000.19,VALID,0,VALID,93.4171,VALID,0,VALID,23.7775,VALID,16,VALID,0,
2010-04-25, 03:15:04,VALID,1000.19,VALID,0,VALID,93.4171,VALID,0,VALID,23.7579,VALID,16,VALID,0,
2010-04-25, 03:16:04,VALID,1000.23,VALID,0,VALID,93.4934,VALID,0,VALID,23.7775,VALID,16,VALID,0,
2010-04-25, 03:17:04,VALID,1000.2,VALID,0,VALID,93.5391,VALID,0.112286,VALID,23.797,VALID,16,VALID,0,
2010-04-25, 03:18:04,VALID,1000.2,VALID,0,VALID,93.562,VALID,0.112286,VALID,23.836,VALID,16,VALID,0,
2010-04-25, 03:19:04,VALID,1000.24,VALID,0,VALID,93.5849,VALID,0,VALID,23.8555,VALID,16,VALID,0,
2010-04-25, 03:20:04,VALID,1000.23,VALID,0,VALID,93.6002,VALID,0.112286,VALID,23.8945,VALID,16,VALID,0,
2010-04-25, 03:21:04,VALID,1000.21,VALID,0,VALID,93.6078,VALID,0,VALID,23.8732,VALID,16,VALID,0,
2010-04-25, 03:22:04,VALID,1000.23,VALID,0,VALID,93.6002,VALID,0.112286,VALID,23.9159,VALID,16,VALID,0,
2010-04-25, 03:23:04,VALID,1000.26,VALID,0,VALID,93.5773,VALID,0,VALID,23.914,VALID,16,VALID,0,
2010-04-25, 03:24:04,VALID,1000.25,VALID,0,VALID,93.5849,VALID,0,VALID,23.9336,VALID,16,VALID,0,
2010-04-25, 03:25:04,VALID,1000.26,VALID,0,VALID,93.6002,VALID,0,VALID,23.9531,VALID,16,VALID,0,
2010-04-25, 03:26:04,VALID,1000.29,VALID,0,VALID,93.6154,VALID,0,VALID,23.9726,VALID,16,VALID,0,
2010-04-25, 03:27:04,VALID,1000.25,VALID,0,VALID,93.6154,VALID,0,VALID,23.9726,VALID,16,VALID,0,
2010-04-25, 03:28:04,VALID,1000.22,VALID,0,VALID,93.6383,VALID,0,VALID,23.9726,VALID,16,VALID,0,
2010-04-25, 03:29:04,VALID,1000.21,VALID,0,VALID,93.6612,VALID,0,VALID,24.0116,VALID,16,VALID,0,
2010-04-25, 03:30:04,VALID,1000.21,VALID,0,VALID,93.6536,VALID,0,VALID,24.0098,VALID,16,VALID,0,
2010-04-25, 03:31:04,VALID,1000.17,VALID,0,VALID,93.6688,VALID,0,VALID,24.0506,VALID,16,VALID,0,
2010-04-25, 03:32:04,VALID,1000.2,VALID,0,VALID,93.6688,VALID,0,VALID,24.0506,VALID,16,VALID,0,
2010-04-25, 03:33:04,VALID,1000.19,VALID,0,VALID,93.6536,VALID,0,VALID,24.0311,VALID,16,VALID,0,
2010-04-25, 03:34:04,VALID,1000.2,VALID,0,VALID,93.6078,VALID,0,VALID,23.9921,VALID,16,VALID,0,
2010-04-25, 03:35:04,VALID,1000.21,VALID,0,VALID,93.6231,VALID,0,VALID,23.9921,VALID,16,VALID,0,
2010-04-25, 03:36:04,VALID,1000.19,VALID,0,VALID,93.5926,VALID,0.112286,VALID,23.9336,VALID,16,VALID,0,
2010-04-25, 03:37:04,VALID,1000.24,VALID,0,VALID,93.6231,VALID,0,VALID,23.8945,VALID,16,VALID,0,
2010-04-25, 03:38:04,VALID,1000.2,VALID,0,VALID,93.5773,VALID,0,VALID,23.875,VALID,16,VALID,0,
2010-04-25, 03:39:04,VALID,1000.2,VALID,0,VALID,93.5544,VALID,0,VALID,23.797,VALID,16,VALID,0,
2010-04-25, 03:40:04,VALID,1000.18,VALID,0,VALID,93.6078,VALID,0,VALID,23.797,VALID,16,VALID,0,
2010-04-25, 03:41:04,VALID,1000.22,VALID,0,VALID,93.5926,VALID,0,VALID,23.7988,VALID,16,VALID,0,
2010-04-25, 03:42:04,VALID,1000.18,VALID,0,VALID,93.5773,VALID,0,VALID,23.7579,VALID,16,VALID,0,
2010-04-25, 03:43:04,VALID,1000.2,VALID,0,VALID,93.5468,VALID,0,VALID,23.6994,VALID,16,VALID,0,
2010-04-25, 03:44:04,VALID,1000.2,VALID,0,VALID,93.501,VALID,0,VALID,23.6799,VALID,16,VALID,0,
2010-04-25, 03:45:04,VALID,1000.19,VALID,0,VALID,93.562,VALID,0,VALID,23.6427,VALID,16,VALID,0,
2010-04-25, 03:46:04,VALID,1000.2,VALID,0,VALID,93.6154,VALID,0,VALID,23.6604,VALID,16,VALID,0,
2010-04-25, 03:47:04,VALID,1000.19,VALID,0,VALID,93.6612,VALID,0,VALID,23.6817,VALID,16,VALID,0,
2010-04-25, 03:48:04,VALID,1000.19,VALID,0,VALID,93.6765,VALID,0,VALID,23.6817,VALID,16,VALID,0,
2010-04-25, 03:49:04,VALID,1000.2,VALID,0,VALID,93.6536,VALID,0,VALID,23.6604,VALID,16,VALID,0,
2010-04-25, 03:50:04,VALID,1000.19,VALID,0,VALID,93.6383,VALID,0,VALID,23.6427,VALID,32,VALID,0,
2010-04-25, 03:51:04,VALID,1000.19,VALID,0,VALID,93.6612,VALID,0,VALID,23.6409,VALID,37,VALID,0.970703,
2010-04-25, 03:52:04,VALID,1000.19,VALID,0,VALID,93.6841,VALID,0,VALID,23.6427,VALID,37,VALID,0.721875,
2010-04-25, 03:53:04,VALID,1000.22,VALID,0,VALID,93.6917,VALID,0,VALID,23.6214,VALID,37,VALID,0.541016,
2010-04-25, 03:54:04,VALID,1000.21,VALID,0,VALID,93.6917,VALID,0,VALID,23.6445,VALID,37,VALID,0.500391,
2010-04-25, 03:55:04,VALID,1000.22,VALID,0,VALID,93.6841,VALID,0,VALID,23.6214,VALID,37,VALID,0.459766,
2010-04-25, 03:56:04,VALID,1000.2,VALID,0,VALID,93.7299,VALID,0,VALID,23.6232,VALID,45,VALID,0.649609,
2010-04-25, 03:57:04,VALID,1000.23,VALID,0,VALID,93.7757,VALID,0,VALID,23.6817,VALID,60,VALID,0.855469,